Skip Page Navigation
NASA JPL Caltech
NASA Logo - Jet Propulsion Laboratory + View the NASA Portal
+ Near-Earth Object (NEO) Program
Search JPL
JPL Home Earth Solar System Stars & Galaxies Technology
JPL Solar System Dynamics
BODIES ORBITS EPHEMERIDES TOOLS PHYSICAL DATA DISCOVERY FAQ SITE MAP
JPL Small-Body Database Browser
Search: [ help ]  
141527 (2002 FG7)
Classification: Apollo [NEO, PHA]          SPK-ID: 2141527
Ephemeris | Orbit Diagram | Orbital Elements | Physical Parameters | Discovery Circumstances | Close-Approach Data ]

[ hide orbit diagram ]
Orbit Diagram
Note: Make sure you have Java enabled on your browser to see the applet. This applet is provided as a 3D orbit visualization tool. The applet was implemented using 2-body methods, and hence should not be used for determining accurate long-term trajectories (over several years or decades) or planetary encounter circumstances. For accurate long-term ephemerides, please instead use our Horizons system.
Orbit Viewer

Additional Notes: the orbits shown in the applet are color coded. The planets are white lines, and the asteroid/comet is a blue line. The bright white line indicates the portion of the orbit that is above the ecliptic plane, and the darker portion is below the ecliptic plane. Likewise for the asteroid/comet orbit, the light blue indicates the portion above the ecliptic plane, and the dark blue the portion below the ecliptic plane.

Orbit Viewer applet originally written and kindly provided by Osamu Ajiki (AstroArts), and further modified by Ron Baalke (JPL).


Orbital Elements at Epoch 2456400.5 (2013-Apr-18.0) TDB
Reference: JPL 35 (heliocentric ecliptic J2000)
 Element Value Uncertainty (1-sigma)   Units 
e .6269770498110969 1.3398e-07  
a 1.513800472089379 2.4438e-08 AU
q .5646823180961346 1.9869e-07 AU
i 9.197468189337673 2.0682e-05 deg
node 187.6783948671831 5.1456e-05 deg
peri 247.4615629109713 5.2686e-05 deg
M 19.79364025679408 7.1416e-05 deg
tp 2456363.095439736417
(2013-Mar-11.59543974)
0.00013423 JED
period 680.3014261243746
1.86
1.6473e-05
4.51e-08
d
yr
n .5291771943664627 1.2814e-08 deg/d
Q 2.462918626082624 3.9759e-08 AU
  Orbit Determination Parameters
   # obs. used (total)      122  
   data-arc span      8010 days (21.93 yr)  
   first obs. used      1990-07-23  
   last obs. used      2012-06-27  
   planetary ephem.      DE405  
   SB-pert. ephem.      SB405-CPV-2  
   condition code      0  
   fit RMS      .55121  
   data source      ORB  
   producer      Otto Matic  
   solution date      2013-Apr-29 15:39:01  

Additional Information
 Earth MOID = .0417873 AU 
 T_jup = 4.267 
[ show covariance matrix ]

Ephemeris | Orbit Diagram | Orbital Elements | Physical Parameters | Discovery Circumstances | Close-Approach Data ]

Physical Parameter Table
Parameter Symbol Value Units Sigma Reference Notes
absolute magnitude H 18.696 mag 1.001 35 autocmod 2.5c

141527 (2002 FG7)          Discovered 2002-Mar-28 by NEAT at Haleakala (608)
Reference: 20061205/Numbers.arcLast Updated: 2006-12-13

[ show close-approach data ]
Ephemeris | Orbit Diagram | Orbital Elements | Physical Parameters | Discovery Circumstances | Close-Approach Data ]
ABOUT SSD CREDITS/AWARDS PRIVACY/COPYRIGHT GLOSSARY LINKS
FirstGov 2013-Jun-20 04:39 UT
(server date/time)  
NASA Home Page
Site Manager:   Donald K. Yeomans
Webmaster  Alan B. Chamberlin